Location: Mohawk View
(42.7837°N, 73.7885°W)
Time: 07:25:17
(UTC+00:00)

Cosmos 2285 Rocket - Pass Details

Date: 17 June 2021
Orbit: 971 x 998 km, 74.0° (Epoch: 28 July)

Event Time Altitude Azimuth Distance (km) Brightness Sun altitude
Rises 01:48:54 0° 206° (SSW) 3,704 6.8 -11.0°
Reaches altitude 10° 01:51:28 10° 209° (SSW) 2,759 6.2 -11.4°
Maximum altitude 01:57:52 69° 292° (WNW) 1,064 4.4 -12.1°
Drops below altitude 10° 02:04:17 10° 16° (NNE) 2,771 6.9 -12.9°
Sets 02:06:52 0° 19° (NNE) 3,721 7.5 -13.2°
